Regional Weather Roundup
Issued by NWS

Home | Current Version | Previous Version | Graphics & Text | Print | Product List | Glossary On
Versions: 1 2 3 4 5 6 7 8 9 10 11 12 13 14 15 16 17 18 19 20 21 22 23 24 25 26 27 28 29 30 31 32 33 34 35 36 37 38 39 40 41 42 43 44 45 46 47 48 49 50
000
ASUS43 KOAX 211810
RWRNE

WEATHER ROUNDUP FOR NEBRASKA
NATIONAL WEATHER SERVICE OMAHA NE
100 PM CDT SUN SEP 21 2014

NOTES: SATELLITE DATA IS BEING USED TO AUGMENT CLOUD COVER ABOVE
       12000 FEET.
       "FAIR" INDICATES FEW OR NO CLOUDS BELOW 12,000 FEET WITH NO
       SIGNIFICANT WEATHER AND/OR OBSTRUCTIONS TO VISIBILITY.

  * THESE STATIONS DO NOT REPORT WEATHER SUCH AS RAIN...SNOW OR FOG.

NEZ001>004-019>022-054>056-211900-
NEBRASKA PANHANDLE

CITY           SKY/WX    TMP DP  RH WIND       PRES   REMARKS
SCOTTSBLUFF    PTSUNNY   69  38  32 SE13      30.37F
6HR MIN TEMP:  47; 6HR MAX TEMP:  69;

ALLIANCE       PTSUNNY   69  36  29 VRB3      30.37F
6HR MIN TEMP:  39; 6HR MAX TEMP:  69;

CHADRON        SUNNY     71  38  29 E5        30.35F
6HR MIN TEMP:  39; 6HR MAX TEMP:  71;

KIMBALL        CLOUDY    66  35  32 SE13      30.38F
SIDNEY         SUNNY     70  37  29 SE10      30.39F
6HR MIN TEMP:  48; 6HR MAX TEMP:  71;

$$

NEZ057>060-069>072-079>082-211900-
SOUTHWEST NEBRASKA

CITY           SKY/WX    TMP DP  RH WIND       PRES   REMARKS
NORTH PLATTE   CLOUDY    72  40  31 VRB5      30.35F
6HR MIN TEMP:  42; 6HR MAX TEMP:  72;

IMPERIAL       PTSUNNY   71  35  26 SE8       30.36F
6HR MIN TEMP:  48; 6HR MAX TEMP:  71;

LEXINGTON      MOSUNNY   72  40  30 N3        30.34S
MCCOOK         SUNNY     74  38  27 NE9       30.34F
6HR MIN TEMP:  47; 6HR MAX TEMP:  74;

OGALLALA       MOSUNNY   72  40  31 E3        30.36F
$$

NEZ005>010-023>029-035>040-094-211900-
NORTH CENTRAL NEBRASKA

CITY           SKY/WX    TMP DP  RH WIND       PRES   REMARKS
VALENTINE      SUNNY     71  37  28 N10       30.33F
6HR MIN TEMP:  42; 6HR MAX TEMP:  71;

AINSWORTH      SUNNY     68  39  34 N10G17    30.33F
BROKEN BOW     SUNNY     73  39  29 N8        30.32F
6HR MIN TEMP:  43; 6HR MAX TEMP:  73;

O`NEILL        SUNNY     69  46  43 N15G22    30.31F
ORD            SUNNY     71  43  36 N13G18    30.30S
6HR MIN TEMP:  43; 6HR MAX TEMP:  71;

THEDFORD       SUNNY     70  40  33 N10       30.36F
$$

NEZ041-046>049-061>064-073>077-083>087-211900-
SOUTH CENTRAL NEBRASKA

CITY           SKY/WX    TMP DP  RH WIND       PRES   REMARKS
GRAND ISLAND   SUNNY     72  42  34 N15G22    30.30F
6HR MIN TEMP:  48; 6HR MAX TEMP:  73;

AURORA         SUNNY     71  38  30 N15       30.29F
HASTINGS       SUNNY     71  40  32 N14G22    30.30F
6HR MIN TEMP:  50; 6HR MAX TEMP:  71;

HEBRON         SUNNY     74  36  25 N16G23    30.27S
HOLDREGE       MOSUNNY   71  37  29 N10       30.32F
KEARNEY *      SUNNY     70  43  37 NW10      30.32F
YORK           SUNNY     68  46  45 N14G26    30.28S
$$

NEZ011>018-030>034-042>045-211900-
NORTHEAST NEBRASKA

CITY           SKY/WX    TMP DP  RH WIND       PRES   REMARKS
NORFOLK        SUNNY     70  46  42 N20       30.26F
6HR MIN TEMP:  47; 6HR MAX TEMP:  70;

ALBION         SUNNY     70  40  34 NW14      30.29S
BLAIR          MOSUNNY   69  48  47 NW14      30.23S
COLUMBUS *     SUNNY     72  45  37 NW10G21   30.28S
FREMONT        MOSUNNY   71  46  41 NW12G21   30.25S
TEKAMAH        SUNNY     72  47  40 NW18G26   30.23S
6HR MIN TEMP:  55; 6HR MAX TEMP:  72;

WAYNE          MOSUNNY   69  47  46 N15G23    30.26S
$$

NEZ050>053-065>068-078-088>093-211900-
SOUTHEAST NEBRASKA

CITY           SKY/WX    TMP DP  RH WIND       PRES   REMARKS
LINCOLN        SUNNY     73  46  38 N20G25    30.25F
6HR MIN TEMP:  50; 6HR MAX TEMP:  73;

OMAHA EPPLEY   MOSUNNY   70  49  47 NW15G22   30.22S
6HR MIN TEMP:  53; 6HR MAX TEMP:  71;

BEATRICE       SUNNY     73  44  35 N15G23    30.24F
FALLS CITY     SUNNY     73  46  38 NW16G28   30.20S
6HR MIN TEMP:  55; 6HR MAX TEMP:  73;

NEBRASKA CITY    N/A     71  36  28 N10G18    30.22F
PLATTSMOUTH    SUNNY     70  44  39 NW14G25   30.22F
$$

NEZ044-045-051>053-067-211900-
OMAHA AREA

CITY           SKY/WX    TMP DP  RH WIND       PRES   REMARKS
OMAHA EPPLEY   MOSUNNY   70  49  47 NW15G22   30.22S
6HR MIN TEMP:  53; 6HR MAX TEMP:  71;

BLAIR          MOSUNNY   69  48  47 NW14      30.23S
FREMONT        MOSUNNY   71  46  41 NW12G21   30.25S
MILLARD        SUNNY     69  49  47 N9G20     30.23S
OFFUTT AFB     SUNNY     71  49  47 NW16G24   30.22S
PLATTSMOUTH    SUNNY     70  44  39 NW14G25   30.22F
WAHOO          FAIR      71  42  34 N16G22    30.24F
$$


USA.gov is the U.S. government's official web portal to all federal, state and local government web resources and services.